{"data":{"norad_id":45187,"epoch":"2026-05-25T02:31:16.917888Z","epoch_age_seconds":72800,"freshness":"FRESH","line1":"1 45187U 20012K   26145.10505692  .00052944  00000+0  16041-2 0  9993","line2":"2 45187  53.1576  44.1274 0002772 112.4977 247.6319 15.33659409346645","mean_motion":15.33659409,"eccentricity":0.0002772,"inclination_deg":53.1576,"raan_deg":44.1274,"arg_perigee_deg":112.4977,"mean_anomaly_deg":247.6319,"bstar":0.0016041,"rev_number":34664,"period_min":93.893076360346,"perigee_km":463.00842713424,"apogee_km":466.8022097956,"semimajor_km":6843.0423184649,"source":"CELESTRAK","updated_at":"2026-05-25T13:38:16.381959Z"}}